SQ5DCP-1 Weather Reports


Display with metric or nautical units.
time (UTC)temp
F
wind
direction
speed
MPH
gust
MPH
rain 1hr
in
rain 24hr
in
rain mn
in
humidity
%
barometer
mb
20260509141523 54 10 1.0 7.0 0.00 0.00 0.00 62 1020.0
20260509141021 54 338 1.0 6.0 0.00 0.00 0.00 61 1019.9
20260509140519 55 337 3.0 10.0 0.00 0.00 0.00 61 1020.1
20260509140048 55 301 2.0 7.0 0.00 0.00 0.00 61 1020.0
20260509140017 55 301 2.0 7.0 0.00 0.00 0.00 61 1020.0
20260509135516 55 307 4.0 11.0 0.00 0.00 0.00 60 1020.0
20260509135034 54 321 3.0 10.0 0.00 0.00 0.00 62 1020.0
20260509134532 54 360 2.0 7.0 0.00 0.00 0.00 62 1020.0
20260509134030 54 22 1.0 4.0 0.00 0.00 0.00 62 1020.1
20260509133529 54 340 4.0 9.0 0.00 0.00 0.00 62 1020.1
20260509133027 54 339 3.0 11.0 0.00 0.00 0.00 62 1020.0
20260509132525 54 331 3.0 16.0 0.00 0.00 0.00 64 1020.1
20260509132023 54 312 4.0 8.0 0.00 0.00 0.00 65 1020.2
20260509131521 53 298 2.0 6.0 0.00 0.00 0.00 66 1020.2
20260509131019 53 280 3.0 9.0 0.00 0.00 0.00 66 1020.2
20260509130517 53 296 4.0 9.0 0.00 0.00 0.00 66 1020.4
20260509130016 52 298 3.0 7.0 0.00 0.00 0.00 66 1020.3
20260509125534 52 280 3.0 7.0 0.00 0.00 0.00 66 1020.4
20260509125032 52 327 2.0 4.0 0.00 0.00 0.00 66 1020.6
20260509124530 52 306 3.0 11.0 0.00 0.00 0.00 66 1020.5
20260509124048 52 349 4.0 10.0 0.00 0.00 0.00 67 102.0
20260509124029 52 349 4.0 10.0 0.00 0.00 0.00 67 1020.5
20260509123527 51 355 3.0 9.0 0.00 0.00 0.00 68 1020.5
20260509123025 51 337 4.0 9.0 0.00 0.00 0.00 70 1020.5
20260509122523 51 327 2.0 6.0 0.00 0.00 0.00 72 1020.6
20260509122021 51 352 3.0 7.0 0.00 0.00 0.00 72 1020.7
20260509121520 51 305 3.0 8.0 0.00 0.00 0.00 72 1020.7
20260509121018 50 337 2.0 6.0 0.00 0.00 0.00 72 1020.8
20260509120516 50 308 3.0 8.0 0.00 0.00 0.00 73 1020.8
20260509120034 50 316 3.0 10.0 0.00 0.00 0.00 73 1020.8
20260509115533 50 325 2.0 7.0 0.00 0.00 0.00 73 1020.9
20260509115031 50 324 1.0 4.0 0.00 0.00 0.00 73 1020.8
20260509114529 50 357 3.0 11.0 0.00 0.00 0.00 73 1020.8
20260509114028 50 341 3.0 7.0 0.00 0.00 0.00 73 1020.8
20260509113526 50 342 3.0 8.0 0.00 0.00 0.00 73 1020.8
20260509113024 50 340 3.0 4.0 0.00 0.00 0.00 73 1020.8
20260509112521 50 0 2.0 8.0 0.00 0.00 0.00 73 1020.8
20260509112020 50 332 2.0 6.0 0.00 0.00 0.00 73 1020.8
20260509111518 50 340 4.0 9.0 0.00 0.00 0.00 73 1020.8
20260509111016 50 349 4.0 8.0 0.00 0.00 0.00 73 1020.8
20260509110534 50 359 5.0 10.0 0.00 0.00 0.00 73 1020.7
20260509110032 50 4 5.0 11.0 0.00 0.00 0.00 74 1020.8
20260509105531 51 344 5.0 13.0 0.00 0.00 0.00 75 1020.7
20260509105029 51 316 2.0 6.0 0.00 0.00 0.00 76 1020.6
20260509104527 51 299 2.0 7.0 0.00 0.00 0.00 76 1020.7
20260509104026 51 297 3.0 6.0 0.00 0.00 0.00 78 1020.6
20260509103523 51 294 2.0 6.0 0.00 0.00 0.00 77 1020.7
20260509103021 50 297 2.0 4.0 0.00 0.00 0.00 77 1020.6
20260509102520 50 300 3.0 9.0 0.00 0.00 0.00 76 1020.6
20260509102019 50 315 4.0 10.0 0.00 0.00 0.00 77 1020.6
20260509101516 50 314 4.0 8.0 0.00 0.00 0.00 77 1020.6
20260509101034 50 291 2.0 6.0 0.00 0.00 0.00 76 1020.6
20260509100532 51 320 3.0 8.0 0.00 0.00 0.00 77 1020.6
20260509100030 51 297 4.0 11.0 0.00 0.00 0.00 77 1020.6
20260509095528 51 308 4.0 10.0 0.00 0.00 0.00 76 1020.4
20260509095027 51 309 4.0 9.0 0.00 0.00 0.00 76 1020.4
20260509094525 51 295 5.0 10.0 0.00 0.00 0.00 74 1020.4
20260509094023 51 298 5.0 11.0 0.00 0.00 0.00 75 1020.4
20260509093521 51 308 5.0 9.0 0.00 0.00 0.00 75 1020.4
20260509093020 51 294 5.0 15.0 0.00 0.00 0.00 75 1020.3
20260509092518 51 325 4.0 10.0 0.00 0.00 0.00 75 1020.3
20260509092016 51 328 4.0 10.0 0.00 0.00 0.00 74 1020.2
20260509091535 51 312 4.0 8.0 0.00 0.00 0.00 74 1020.3
20260509091032 51 355 6.0 10.0 0.00 0.00 0.00 74 1020.3
20260509090531 51 338 3.0 8.0 0.00 0.00 0.00 74 1020.3
20260509090029 51 331 3.0 7.0 0.00 0.00 0.00 74 1020.2
20260509085527 51 307 4.0 7.0 0.00 0.00 0.00 73 1020.2
20260509085026 51 342 4.0 10.0 0.00 0.00 0.00 73 1020.3
20260509084524 51 314 3.0 7.0 0.00 0.00 0.00 74 1020.2
20260509084022 51 339 3.0 9.0 0.00 0.00 0.00 73 1020.2
20260509083520 51 298 4.0 8.0 0.00 0.00 0.00 73 1020.1
20260509083018 51 301 4.0 9.0 0.00 0.00 0.00 73 1020.1
20260509082516 51 321 3.0 8.0 0.00 0.00 0.00 73 1020.1
20260509082034 52 294 4.0 8.0 0.00 0.00 0.00 73 1020.1
20260509081532 52 301 4.0 8.0 0.00 0.00 0.00 73 1020.1
20260509081031 52 276 5.0 9.0 0.00 0.00 0.00 74 1020.0
20260509080529 51 292 4.0 9.0 0.00 0.00 0.00 74 1019.9
20260509080027 51 306 4.0 9.0 0.00 0.00 0.00 75 1020.0
20260509075525 51 312 4.0 8.0 0.00 0.00 0.00 75 1020.0
20260509075023 51 310 7.0 13.0 0.00 0.00 0.00 75 1020.0
20260509074521 51 309 5.0 10.0 0.00 0.00 0.00 76 1019.9
20260509074019 51 332 4.0 8.0 0.00 0.00 0.00 76 1020.0
20260509073519 51 295 3.0 7.0 0.00 0.00 0.00 77 1019.9
20260509073048 50 300 3.0 9.0 0.00 0.00 0.00 77 1020.0
20260509073016 50 300 3.0 9.0 0.00 0.00 0.00 77 1020.0
20260509072534 50 285 3.0 8.0 0.00 0.00 0.00 77 1019.9
20260509072033 50 296 4.0 7.0 0.00 0.00 0.00 77 1020.0
20260509071530 50 312 3.0 8.0 0.00 0.00 0.00 78 1019.9
20260509071029 50 297 3.0 7.0 0.00 0.00 0.00 78 1019.9
20260509070528 50 343 2.0 7.0 0.00 0.00 0.00 78 1019.9
20260509070049 50 333 3.0 6.0 0.00 0.00 0.00 79 1019.9
20260509070025 50 333 3.0 6.0 0.00 0.00 0.00 79 1019.9
20260509065523 50 351 3.0 7.0 0.00 0.00 0.00 80 1019.8
20260509065021 50 304 2.0 4.0 0.00 0.00 0.00 80 1019.9
20260509064519 50 291 1.0 4.0 0.00 0.00 0.00 80 1019.8
20260509064017 50 292 2.0 4.0 0.00 0.00 0.00 81 1019.9
20260509063516 50 288 1.0 2.0 0.00 0.00 0.00 81 1019.8
20260509063034 49 303 2.0 6.0 0.00 0.00 0.00 81 1019.8
20260509062532 49 295 3.0 6.0 0.00 0.00 0.00 81 1019.7
20260509062031 49 307 2.0 4.0 0.00 0.00 0.00 81 1019.9
20260509061529 49 310 2.0 6.0 0.00 0.00 0.00 81 1019.7
20260509061026 49 302 3.0 7.0 0.00 0.00 0.00 81 1019.8
20260509060525 49 318 2.0 6.0 0.00 0.00 0.00 81 1019.7
20260509060023 49 300 2.0 6.0 0.00 0.00 0.00 81 1019.8
20260509055521 49 335 2.0 6.0 0.00 0.00 0.00 81 1019.7
20260509055019 49 298 2.0 6.0 0.00 0.00 0.00 82 1019.8
20260509054517 49 304 3.0 6.0 0.00 0.00 0.00 82 1019.7
20260509054016 49 330 2.0 6.0 0.00 0.00 0.00 82 1019.7
20260509053534 49 338 3.0 7.0 0.00 0.00 0.00 82 1019.6
20260509053031 49 294 2.0 4.0 0.00 0.00 0.00 82 1019.6
20260509052530 49 305 3.0 8.0 0.00 0.00 0.00 82 1019.6
20260509052028 49 299 2.0 6.0 0.00 0.00 0.00 82 1019.6
20260509051525 49 304 3.0 7.0 0.00 0.00 0.00 83 1019.6
20260509051023 49 299 2.0 7.0 0.00 0.00 0.00 83 1019.6
20260509050521 49 342 2.0 4.0 0.00 0.00 0.00 83 1019.5
20260509050050 49 314 2.0 0.0 0.00 0.00 0.00 83 1019.6
20260509050019 49 314 2.0 6.0 0.00 0.00 0.00 83 1019.6
20260509045517 49 316 1.0 4.0 0.00 0.00 0.00 83 1019.5
20260509045037 49 290 3.0 6.0 0.00 0.00 0.00 83 1019.6
20260509044533 49 287 2.0 6.0 0.00 0.00 0.00 83 1019.6
20260509044031 49 289 3.0 6.0 0.00 0.00 0.00 83 1019.5
20260509043529 49 298 3.0 6.0 0.00 0.00 0.00 83 1019.5
20260509043028 49 295 3.0 7.0 0.00 0.00 0.00 83 1019.5
20260509042526 49 288 3.0 7.0 0.00 0.00 0.00 83 1019.5
20260509042024 49 288 1.0 4.0 0.00 0.00 0.00 83 1019.4
20260509041523 49 294 2.0 4.0 0.00 0.00 0.00 83 1019.4
20260509041020 49 287 3.0 6.0 0.00 0.00 0.00 83 1019.5
20260509040519 49 301 1.0 3.0 0.00 0.00 0.00 82 1019.3
20260509040017 49 313 2.0 6.0 0.00 0.00 0.00 82 1019.3
20260509035535 49 284 2.0 4.0 0.00 0.00 0.00 82 1019.4
20260509035033 49 292 1.0 3.0 0.00 0.00 0.00 83 1019.3
20260509034531 49 288 3.0 6.0 0.00 0.00 0.00 83 1019.3
20260509034028 49 300 2.0 4.0 0.00 0.00 0.00 83 1019.3
20260509033527 49 291 2.0 6.0 0.00 0.00 0.00 83 1019.2
20260509033025 49 292 3.0 6.0 0.00 0.00 0.00 83 1019.3
20260509032523 49 299 2.0 6.0 0.00 0.00 0.00 82 1019.4
20260509032021 49 298 2.0 6.0 0.00 0.00 0.00 82 1019.4
20260509031519 49 294 3.0 6.0 0.00 0.00 0.00 82 1019.4
20260509031018 49 286 2.0 6.0 0.00 0.00 0.00 82 1019.4
20260509030536 49 294 3.0 7.0 0.00 0.00 0.00 82 1019.4
20260509030034 49 313 2.0 4.0 0.00 0.00 0.00 82 1019.4
20260509025532 49 297 1.0 3.0 0.00 0.00 0.00 82 1019.4
20260509025030 49 292 1.0 3.0 0.00 0.00 0.00 82 1019.5
20260509024528 49 288 2.0 4.0 0.00 0.00 0.00 82 1019.5
20260509024027 49 292 2.0 6.0 0.00 0.00 0.00 82 1019.6
20260509023524 49 285 2.0 4.0 0.00 0.00 0.00 82 1019.4
20260509023024 49 295 3.0 6.0 0.00 0.00 0.00 82 1019.5
20260509022521 49 288 2.0 4.0 0.00 0.00 0.00 81 1019.5
20260509022050 49 288 2.0 6.0 0.00 0.00 0.00 81 1019.6
20260509022019 49 288 2.0 6.0 0.00 0.00 0.00 81 1019.6
20260509021517 49 287 3.0 7.0 0.00 0.00 0.00 81 1019.6
20260509021035 49 302 2.0 4.0 0.00 0.00 0.00 81 1019.5
20260509020534 49 296 2.0 4.0 0.00 0.00 0.00 81 1019.6
20260509020032 49 297 2.0 4.0 0.00 0.00 0.00 81 1019.5
20260509015530 49 283 3.0 6.0 0.00 0.00 0.00 81 1019.5
20260509015028 49 296 2.0 7.0 0.00 0.00 0.00 81 1019.5
20260509014526 49 288 2.0 4.0 0.00 0.00 0.00 81 1019.6
20260509014025 49 289 3.0 4.0 0.00 0.00 0.00 81 1019.5
20260509013523 49 291 2.0 7.0 0.00 0.00 0.00 81 1019.6
20260509013040 49 304 3.0 8.0 0.00 0.00 0.00 81 1019.5
20260509012535 49 295 3.0 6.0 0.00 0.00 0.00 81 1019.6
20260509012032 49 302 3.0 7.0 0.00 0.00 0.00 81 1019.6
20260509011530 49 289 2.0 6.0 0.00 0.00 0.00 81 1019.6
20260509011049 50 304 3.0 4.0 0.00 0.00 0.00 80 1019.1
20260509011028 50 304 3.0 4.0 0.00 0.00 0.00 80 1019.6
20260509010527 50 295 3.0 7.0 0.00 0.00 0.00 80 1019.5
20260509010025 50 285 3.0 8.0 0.00 0.00 0.00 80 1019.6
20260509005523 50 288 2.0 4.0 0.00 0.00 0.00 80 1019.5
20260509005021 50 298 2.0 7.0 0.00 0.00 0.00 80 1019.5
20260509004520 50 291 3.0 7.0 0.00 0.00 0.00 80 1019.5
20260509004018 50 309 3.0 7.0 0.00 0.00 0.00 80 1019.5
20260509003516 50 299 3.0 6.0 0.00 0.00 0.00 79 1019.6
20260509003034 50 288 3.0 7.0 0.00 0.00 0.00 79 1019.6
20260509002532 50 294 2.0 6.0 0.00 0.00 0.00 79 1019.6
20260509002031 50 289 3.0 4.0 0.00 0.00 0.00 79 1019.7
20260509001529 50 289 3.0 4.0 0.00 0.00 0.00 79 1019.6
20260509001027 50 293 2.0 7.0 0.00 0.00 0.00 78 1019.7
20260509000526 50 279 3.0 7.0 0.00 0.00 0.00 78 1019.7
20260509000024 50 297 2.0 4.0 0.00 0.00 0.00 79 1019.7
20260508235522 50 283 2.0 7.0 0.00 0.00 0.00 79 1019.7
20260508235020 50 284 4.0 7.0 0.00 0.00 0.00 78 1019.7
20260508234518 50 307 3.0 6.0 0.00 0.00 0.00 79 1019.7
20260508234049 50 277 2.0 6.0 0.00 0.00 0.00 79 1019.7
20260508234017 50 277 2.0 6.0 0.00 0.00 0.00 79 1019.7
20260508233534 50 306 2.0 6.0 0.00 0.00 0.00 79 1019.7
20260508233033 50 280 2.0 4.0 0.00 0.00 0.00 79 1019.7
20260508232530 50 293 2.0 4.0 0.00 0.00 0.00 79 1019.7
20260508232029 50 286 2.0 4.0 0.00 0.00 0.00 78 1019.8
20260508231527 50 289 2.0 4.0 0.00 0.00 0.00 78 1019.7
20260508231025 51 296 2.0 6.0 0.00 0.00 0.00 78 1019.7
20260508230524 51 291 2.0 4.0 0.00 0.00 0.00 78 1019.7
20260508230022 51 289 3.0 6.0 0.00 0.00 0.00 78 1019.8
20260508225521 51 292 2.0 3.0 0.00 0.00 0.00 78 1019.8
20260508225018 51 291 2.0 4.0 0.00 0.00 0.00 78 1019.7
20260508224516 51 288 2.0 4.0 0.00 0.00 0.00 78 1019.7
20260508224035 51 286 1.0 4.0 0.00 0.00 0.00 78 1019.7
20260508223533 51 304 2.0 4.0 0.00 0.00 0.00 78 1019.6
20260508223031 51 305 2.0 4.0 0.00 0.00 0.00 77 1019.7
20260508222529 51 293 2.0 7.0 0.00 0.00 0.00 77 1019.6
20260508222027 51 285 2.0 7.0 0.00 0.00 0.00 77 1019.7
20260508221526 51 285 2.0 4.0 0.00 0.00 0.00 77 1019.6
20260508221024 51 277 2.0 4.0 0.00 0.00 0.00 77 1019.6
20260508220522 51 291 2.0 3.0 0.00 0.00 0.00 77 1019.6
20260508220021 51 295 1.0 4.0 0.00 0.00 0.00 77 1019.6
20260508215518 51 297 2.0 6.0 0.00 0.00 0.00 77 1019.6
20260508215048 51 295 1.0 3.0 0.00 0.00 0.00 77 1019.6
20260508215017 51 295 1.0 3.0 0.00 0.00 0.00 77 1019.6
20260508214535 51 286 1.0 4.0 0.00 0.00 0.00 76 1019.6
20260508214033 51 284 2.0 4.0 0.00 0.00 0.00 76 1019.6
20260508213531 51 284 2.0 3.0 0.00 0.00 0.00 77 1019.6
20260508213029 51 300 3.0 7.0 0.00 0.00 0.00 76 1019.6
20260508212528 51 289 1.0 4.0 0.00 0.00 0.00 76 1019.8
20260508212026 51 285 1.0 3.0 0.00 0.00 0.00 77 1019.7
20260508211524 51 299 2.0 4.0 0.00 0.00 0.00 77 1019.7
20260508211022 51 321 2.0 6.0 0.00 0.00 0.00 77 1019.7
20260508210521 51 316 3.0 7.0 0.00 0.00 0.00 77 1019.8
20260508210018 51 314 3.0 6.0 0.00 0.00 0.00 77 1019.7
20260508205517 51 310 3.0 6.0 0.00 0.00 0.00 76 1019.8
20260508205035 51 311 3.0 7.0 0.00 0.00 0.00 76 1019.8
20260508204533 51 307 2.0 6.0 0.00 0.00 0.00 76 1019.8
20260508204031 51 301 3.0 6.0 0.00 0.00 0.00 77 1019.7
20260508203530 51 317 2.0 7.0 0.00 0.00 0.00 77 1019.7
20260508203027 52 326 3.0 7.0 0.00 0.00 0.00 77 1019.7
20260508202525 52 285 2.0 4.0 0.00 0.00 0.00 77 1019.7
20260508202023 52 310 2.0 4.0 0.00 0.00 0.00 77 1019.7
20260508201522 52 314 2.0 4.0 0.00 0.00 0.00 77 1019.7
20260508201020 52 299 3.0 7.0 0.00 0.00 0.00 78 1019.6
20260508200518 52 310 2.0 6.0 0.00 0.00 0.00 77 1019.6
20260508200049 52 331 1.0 4.0 0.00 0.00 0.00 78 1019.7
20260508200016 52 331 1.0 4.0 0.00 0.00 0.00 78 1019.7
20260508195534 52 326 2.0 6.0 0.00 0.00 0.00 77 1019.7
20260508195033 52 314 2.0 8.0 0.00 0.00 0.00 76 1019.6
20260508194531 52 315 3.0 7.0 0.00 0.00 0.00 76 1019.5
20260508194049 52 333 3.0 7.0 0.00 0.00 0.00 75 1019.6
20260508194029 52 333 3.0 7.0 0.00 0.00 0.00 75 1019.6
20260508193528 52 310 3.0 8.0 0.00 0.00 0.00 75 1019.5
20260508193025 52 318 3.0 7.0 0.00 0.00 0.00 75 1019.6
20260508192523 53 300 2.0 7.0 0.00 0.00 0.00 75 1019.5
20260508192021 53 304 2.0 6.0 0.00 0.00 0.00 75 1019.6
20260508191520 53 296 2.0 7.0 0.00 0.00 0.00 74 1019.5
20260508191018 53 318 2.0 6.0 0.00 0.00 0.00 74 1019.5
20260508190535 53 321 3.0 7.0 0.00 0.00 0.00 74 1019.5
20260508190034 53 298 2.0 6.0 0.00 0.00 0.00 74 1019.5
20260508185532 53 300 1.0 3.0 0.00 0.00 0.00 74 1019.4
20260508185030 53 289 1.0 3.0 0.00 0.00 0.00 74 1019.3
20260508184527 53 320 2.0 6.0 0.00 0.00 0.00 74 1019.3
20260508184026 53 290 3.0 6.0 0.00 0.00 0.00 74 1019.3
20260508183524 53 315 2.0 7.0 0.00 0.00 0.00 74 1019.2
20260508183022 53 325 3.0 7.0 0.00 0.00 0.00 74 1019.2
20260508182519 53 332 1.0 6.0 0.00 0.00 0.00 74 1019.1
20260508182048 53 304 2.0 7.0 0.00 0.00 0.00 73 1019.1
20260508182017 53 304 2.0 7.0 0.00 0.00 0.00 73 1019.1
20260508181516 53 331 3.0 7.0 0.00 0.00 0.00 73 1019.0
20260508181034 53 294 3.0 7.0 0.00 0.01 0.00 73 1018.9
20260508180533 53 317 2.0 4.0 0.00 0.01 0.00 73 1018.9
20260508180029 53 293 2.0 6.0 0.00 0.01 0.00 73 1018.9
20260508175527 53 307 2.0 6.0 0.00 0.01 0.00 73 1018.8
20260508175025 53 298 3.0 7.0 0.00 0.01 0.00 73 1018.7
20260508174523 53 274 2.0 4.0 0.00 0.01 0.00 73 1018.6
20260508174022 53 290 2.0 6.0 0.00 0.01 0.00 73 1018.6
20260508173519 53 287 2.0 6.0 0.00 0.01 0.00 73 1018.6
20260508173049 54 279 4.0 7.0 0.00 0.01 0.00 73 1018.7
20260508173018 54 279 4.0 7.0 0.00 0.01 0.00 73 1018.7
20260508172535 54 276 3.0 7.0 0.00 0.01 0.00 72 1018.6
20260508172035 54 297 4.0 10.0 0.00 0.01 0.00 73 1018.6
20260508171533 54 294 3.0 6.0 0.00 0.01 0.00 72 1018.6
20260508171030 54 310 4.0 10.0 0.00 0.01 0.00 72 1018.7
20260508170529 54 292 4.0 8.0 0.00 0.01 0.00 72 1018.6
20260508170027 54 316 4.0 8.0 0.00 0.01 0.00 72 1018.5
20260508165524 54 305 3.0 9.0 0.00 0.01 0.00 72 1018.5
20260508165022 54 311 5.0 9.0 0.00 0.01 0.00 72 1018.4
20260508164520 54 295 4.0 9.0 0.00 0.01 0.00 72 1018.5
20260508164051 54 306 3.0 8.0 0.00 0.01 0.00 72 1018.4
20260508164020 54 306 3.0 8.0 0.00 0.01 0.00 72 1018.4
20260508163517 54 308 3.0 6.0 0.00 0.01 0.00 72 1018.5
20260508163035 54 294 4.0 9.0 0.00 0.01 0.00 71 1018.5
20260508162533 54 309 4.0 9.0 0.00 0.01 0.00 71 1018.4
20260508162032 54 324 4.0 8.0 0.00 0.01 0.00 71 1018.4
20260508161530 54 321 3.0 6.0 0.00 0.01 0.00 72 1018.3
20260508161028 54 316 3.0 7.0 0.00 0.01 0.00 71 1018.3
20260508160526 54 311 4.0 9.0 0.00 0.01 0.00 71 1018.4
20260508160024 54 301 4.0 8.0 0.00 0.01 0.00 71 1018.4
20260508155523 54 310 4.0 9.0 0.00 0.01 0.00 71 1018.4
20260508155020 54 300 4.0 9.0 0.00 0.01 0.00 71 1018.4
20260508154519 54 296 4.0 9.0 0.00 0.01 0.00 71 1018.4
20260508154049 54 297 4.0 10.0 0.00 0.01 0.00 71 1018.4
20260508154017 54 297 4.0 10.0 0.00 0.01 0.00 71 1018.4
20260508153535 54 303 3.0 10.0 0.00 0.01 0.00 71 1018.4
20260508153034 54 315 4.0 10.0 0.00 0.01 0.00 71 1018.4
20260508152531 54 292 5.0 9.0 0.00 0.01 0.00 71 1018.3
20260508152029 55 310 4.0 9.0 0.00 0.01 0.00 71 1018.4
20260508151526 55 301 6.0 14.0 0.00 0.01 0.00 71 1018.3
20260508151025 55 317 5.0 13.0 0.00 0.01 0.00 71 1018.3
20260508150523 55 291 3.0 9.0 0.00 0.01 0.00 70 1018.2
20260508150021 55 293 3.0 10.0 0.00 0.01 0.00 71 1018.2
20260508145519 55 312 4.0 10.0 0.00 0.01 0.00 71 1018.2
20260508145017 55 337 5.0 10.0 0.00 0.01 0.00 71 1018.1
20260508144536 55 347 3.0 9.0 0.00 0.01 0.00 71 1018.1
20260508144034 55 300 3.0 9.0 0.00 0.01 0.00 72 1018.2
20260508143532 55 337 4.0 10.0 0.00 0.01 0.00 71 1018.2
20260508143030 55 334 3.0 7.0 0.00 0.01 0.00 72 1018.2
20260508142528 55 327 3.0 8.0 0.00 0.01 0.00 72 1018.3
20260508142026 55 322 3.0 10.0 0.00 0.01 0.00 72 1018.2